Hazen, ND

11:18 PM CDT on July 25, 2016 (GMT -0500)
Mercer County Regional

Weather History for KHZE - February, 2013

Change the Weather History Date:

Thursday, February 14, 2013

  Actual Average (KN60) Record (KN60)
Temperature  
Mean Temperature 24 °F -  
Max Temperature 32 °F - 41 °F (2012)
Min Temperature 17 °F - -23 °F (2007)
Degree Days  
Heating Degree Days 40    
Cooling Degree Days 0    
Moisture  
Dew Point 18 °F    
Average Humidity 76    
Maximum Humidity 86    
Minimum Humidity 68    
Precipitation  
Precipitation 0.02 in - 0.03 in (2016)
Month to date precipitation  
Year to date precipitation  
Sea Level Pressure  
Sea Level Pressure 30.10 in    
Wind  
Wind Speed 14 mph (NW)    
Max Wind Speed 22 mph    
Max Gust Speed 29 mph    
Visibility 10 miles    
Events Rain , Snow    
T = Trace of Precipitation, MM = Missing Value Source: NWS Daily Summary

Daily Weather History Graph

Daily Weather History Graph

Search for Another Location

Airport or City:

Trip Planner

Search our weather history database for the weather conditions in past years. The results will help you decide how hot, cold, wet, or windy it might be!

Date:

Astronomy

Feb. 14, 2013 Rise Set
Actual Time 7:52 AM CST 6:09 PM CST
Civil Twilight 7:20 AM CST 6:40 PM CST
Nautical Twilight 6:45 AM CST 7:16 PM CST
Astronomical Twilight 6:09 AM CST 7:52 PM CST
Moon 9:32 AM CST (2/14) 11:39 PM CST (2/14)
Length of Visible Light 11h 19m
Length of Day
10h 16m
Waxing Crescent, 22% of the Moon is Illuminated
Feb 14
Waxing Crescent
Feb 17
First Quarter
Feb 25
Full
Mar 4
Last Quarter
Mar 11
New

Hourly Weather History & Observations

Time (CST) Temp. Windchill Dew Point Humidity Pressure Visibility Wind Dir Wind Speed Gust Speed Precip Events Conditions
12:15 AM 32.0 °F 22.1 °F 23.0 °F 69% 29.78 in 10.0 mi WNW 13.8 mph 25.3 mph N/A   Mostly Cloudy
12:35 AM 32.0 °F 21.6 °F 23.0 °F 69% 29.79 in 10.0 mi WNW 15.0 mph 21.9 mph N/A   Overcast
12:55 AM 32.0 °F 19.5 °F 24.8 °F 75% 29.79 in 10.0 mi WNW 21.9 mph 27.6 mph N/A   Overcast
1:15 AM 32.0 °F 20.8 °F 24.8 °F 75% 29.80 in 10.0 mi WNW 17.3 mph 27.6 mph N/A Snow Light Snow
1:35 AM 32.0 °F 20.8 °F 24.8 °F 75% 29.80 in 10.0 mi WNW 17.3 mph 25.3 mph N/A Snow Light Snow
1:55 AM 32.0 °F 20.8 °F 24.8 °F 75% 29.80 in 10.0 mi WNW 17.3 mph 21.9 mph N/A   Overcast
2:15 AM 32.0 °F 22.5 °F 24.8 °F 75% 29.80 in 10.0 mi WNW 12.7 mph 20.7 mph N/A   Overcast
2:35 AM 32.0 °F 22.1 °F 24.8 °F 75% 29.81 in 10.0 mi WNW 13.8 mph - N/A   Overcast
2:55 AM 32.0 °F 22.1 °F 24.8 °F 75% 29.80 in 10.0 mi WNW 13.8 mph 19.6 mph N/A   Overcast
3:15 AM 32.0 °F 21.6 °F 24.8 °F 75% 29.81 in 10.0 mi WNW 15.0 mph 24.2 mph N/A   Overcast
3:35 AM 32.0 °F 21.2 °F 26.6 °F 80% 29.81 in 10.0 mi WNW 16.1 mph 20.7 mph N/A Snow Light Snow
3:55 AM 32.0 °F 22.5 °F 26.6 °F 80% 29.81 in 10.0 mi WNW 12.7 mph 18.4 mph N/A Snow Light Snow
4:15 AM 32.0 °F 20.8 °F 26.6 °F 80% 29.81 in 10.0 mi WNW 17.3 mph 24.2 mph N/A   Overcast
4:35 AM 32.0 °F 20.8 °F 26.6 °F 80% 29.81 in 8.0 mi WNW 17.3 mph 23.0 mph 0.01 in Snow Light Snow
4:55 AM 32.0 °F 20.8 °F 26.6 °F 80% 29.82 in 10.0 mi WNW 17.3 mph - 0.01 in   Overcast
5:15 AM 32.0 °F 21.2 °F 26.6 °F 80% 29.83 in 10.0 mi WNW 16.1 mph 23.0 mph N/A   Overcast
5:35 AM 28.4 °F 15.1 °F 24.8 °F 86% 29.85 in 6.0 mi North 20.7 mph 25.3 mph N/A Snow Light Snow
5:55 AM 26.6 °F 12.7 °F 23.0 °F 86% 29.88 in 10.0 mi NNE 20.7 mph 26.5 mph N/A   Overcast
6:15 AM 24.8 °F 11.1 °F 19.4 °F 80% 29.91 in 10.0 mi NNE 18.4 mph 26.5 mph N/A   Overcast
6:35 AM 23.0 °F 8.0 °F 19.4 °F 86% 29.95 in 4.0 mi NNE 20.7 mph 28.8 mph N/A Rain Light Freezing Rain
6:55 AM 21.2 °F 6.0 °F 17.6 °F 86% 29.98 in 10.0 mi NNE 19.6 mph 27.6 mph N/A Rain Light Freezing Rain
7:15 AM 21.2 °F 6.4 °F 15.8 °F 80% 30.00 in 10.0 mi NNE 18.4 mph 21.9 mph N/A Snow Light Snow
7:35 AM 19.4 °F 3.6 °F 15.8 °F 86% 30.03 in 4.0 mi NNE 19.6 mph 23.0 mph N/A Snow Light Snow
7:55 AM 19.4 °F 6.0 °F 15.8 °F 86% 30.05 in 2.5 mi NNE 13.8 mph 25.3 mph 0.01 in Snow Light Snow
8:15 AM 19.4 °F 7.2 °F 15.8 °F 86% 30.08 in 5.0 mi North 11.5 mph 18.4 mph N/A Snow Light Snow
8:35 AM 17.6 °F 3.2 °F 14.0 °F 86% 30.10 in 9.0 mi North 15.0 mph 23.0 mph N/A   Mostly Cloudy
8:55 AM 17.6 °F 3.2 °F 12.2 °F 79% 30.13 in 10.0 mi North 15.0 mph - N/A   Overcast
9:15 AM 17.6 °F 5.0 °F 10.4 °F 73% 30.14 in 10.0 mi North 11.5 mph - N/A   Overcast
9:35 AM 17.6 °F 3.2 °F 10.4 °F 73% 30.16 in 9.0 mi North 15.0 mph - N/A Snow Light Snow
9:55 AM 17.6 °F 2.7 °F 8.6 °F 68% 30.17 in 10.0 mi North 16.1 mph - N/A Snow Light Snow
10:15 AM 17.6 °F 2.7 °F 10.4 °F 73% 30.19 in 10.0 mi NNW 16.1 mph - N/A   Overcast
10:35 AM 19.4 °F 6.6 °F 12.2 °F 74% 30.20 in 10.0 mi NNW 12.7 mph - N/A Snow Light Snow
10:55 AM 19.4 °F 6.6 °F 14.0 °F 80% 30.20 in 10.0 mi NNW 12.7 mph - N/A Snow Light Snow
11:15 AM 19.4 °F 6.0 °F 14.0 °F 80% 30.21 in 10.0 mi NNW 13.8 mph 17.3 mph N/A Snow Light Snow
11:35 AM 21.2 °F 10.9 °F 15.8 °F 80% 30.21 in 10.0 mi NNW 9.2 mph - N/A   Overcast
11:55 AM 23.0 °F 10.6 °F 17.6 °F 80% 30.22 in 5.0 mi NW 13.8 mph - N/A Snow Light Snow
12:15 PM 23.0 °F 11.7 °F 15.8 °F 74% 30.22 in 10.0 mi NW 11.5 mph - N/A Snow Light Snow
12:35 PM 23.0 °F 9.2 °F 15.8 °F 74% 30.22 in 10.0 mi NW 17.3 mph - N/A   Overcast
12:55 PM 23.0 °F 8.7 °F 15.8 °F 74% 30.23 in 10.0 mi NNW 18.4 mph - N/A   Overcast
1:15 PM 24.8 °F 12.4 °F 15.8 °F 69% 30.22 in 10.0 mi NW 15.0 mph - N/A   Overcast
1:35 PM 24.8 °F 11.5 °F 15.8 °F 69% 30.22 in 10.0 mi NNW 17.3 mph 24.2 mph N/A   Overcast
1:55 PM 24.8 °F 11.5 °F 15.8 °F 69% 30.23 in 10.0 mi NW 17.3 mph - N/A   Overcast
2:15 PM 23.0 °F 8.3 °F 15.8 °F 74% 30.23 in 10.0 mi NNW 19.6 mph 24.2 mph N/A   Overcast
2:35 PM 23.0 °F 8.7 °F 15.8 °F 74% 30.24 in 10.0 mi NNW 18.4 mph 26.5 mph N/A   Overcast
2:55 PM 23.0 °F 9.6 °F 15.8 °F 74% 30.24 in 10.0 mi NNW 16.1 mph - N/A   Overcast
3:15 PM 23.0 °F 9.6 °F 15.8 °F 74% 30.25 in 10.0 mi NNW 16.1 mph 20.7 mph N/A   Overcast
3:35 PM 24.8 °F 11.9 °F 15.8 °F 69% 30.26 in 10.0 mi NNW 16.1 mph 20.7 mph N/A   Overcast
3:55 PM 24.8 °F 14.6 °F 15.8 °F 69% 30.26 in 10.0 mi NNW 10.4 mph - N/A   Overcast
4:15 PM 24.8 °F 15.3 °F 15.8 °F 69% 30.25 in 10.0 mi NW 9.2 mph - N/A   Overcast
4:35 PM 24.8 °F 15.3 °F 15.8 °F 69% 30.25 in 10.0 mi NW 9.2 mph - N/A   Overcast
4:55 PM 24.8 °F 15.3 °F 15.8 °F 69% 30.25 in 10.0 mi NW 9.2 mph - N/A   Overcast
5:15 PM 24.8 °F 16.9 °F 15.8 °F 69% 30.26 in 10.0 mi NW 6.9 mph - N/A   Overcast
5:35 PM 24.8 °F 16.9 °F 15.8 °F 69% 30.25 in 10.0 mi NW 6.9 mph - N/A   Overcast
5:55 PM 24.8 °F 16.1 °F 17.6 °F 74% 30.25 in 10.0 mi NW 8.1 mph - N/A   Overcast
6:15 PM 24.8 °F 15.3 °F 17.6 °F 74% 30.25 in 10.0 mi WNW 9.2 mph - N/A Snow Light Snow
6:35 PM 24.8 °F 19.1 °F 17.6 °F 74% 30.25 in 10.0 mi NW 4.6 mph - N/A   Overcast
6:55 PM 24.8 °F 17.9 °F 17.6 °F 74% 30.25 in 10.0 mi West 5.8 mph - N/A   Overcast
7:15 PM 23.0 °F 15.8 °F 17.6 °F 80% 30.25 in 10.0 mi WSW 5.8 mph - N/A   Overcast
7:35 PM 23.0 °F 15.8 °F 17.6 °F 80% 30.25 in 10.0 mi WSW 5.8 mph - N/A   Overcast
7:55 PM 23.0 °F 14.7 °F 17.6 °F 80% 30.24 in 10.0 mi West 6.9 mph - N/A   Overcast
8:15 PM 23.0 °F 14.7 °F 17.6 °F 80% 30.25 in 10.0 mi West 6.9 mph - N/A   Overcast
8:35 PM 24.8 °F 16.9 °F 17.6 °F 74% 30.25 in 10.0 mi WNW 6.9 mph - N/A   Overcast
8:55 PM 24.8 °F 14.6 °F 17.6 °F 74% 30.24 in 10.0 mi WNW 10.4 mph - N/A   Overcast
9:15 PM 24.8 °F 16.1 °F 17.6 °F 74% 30.25 in 10.0 mi NW 8.1 mph - N/A   Overcast
9:35 PM 24.8 °F 12.9 °F 17.6 °F 74% 30.26 in 10.0 mi North 13.8 mph - N/A   Overcast
9:55 PM 23.0 °F 12.4 °F 17.6 °F 80% 30.26 in 10.0 mi NNW 10.4 mph - N/A   Overcast
10:15 PM 23.0 °F 13.1 °F 17.6 °F 80% 30.26 in 10.0 mi NNW 9.2 mph - N/A   Overcast
10:35 PM 23.0 °F 11.1 °F 15.8 °F 74% 30.26 in 10.0 mi NW 12.7 mph - N/A   Overcast
10:55 PM 21.2 °F 11.7 °F 14.0 °F 74% 30.26 in 10.0 mi NNW 8.1 mph - N/A   Overcast
11:15 PM 19.4 °F 14.3 °F 14.0 °F 80% 30.26 in 10.0 mi NNW 3.5 mph - N/A   Overcast
11:35 PM 19.4 °F 12.8 °F 14.0 °F 80% 30.26 in 10.0 mi North 4.6 mph - N/A   Overcast
11:55 PM 19.4 °F 11.5 °F 14.0 °F 80% 30.26 in 10.0 mi North 5.8 mph - N/A   Overcast